Miscellaneous Local Product
Issued by NWS Hastings, NE

Home | Current Version | Previous Version | Graphics & Text | Print | Product List | Glossary On
Versions: 1 2 3 4 5 6 7 8 9 10 11 12 13 14 15 16 17 18 19 20 21 22 23 24 25 26 27 28 29 30 31 32 33 34 35 36 37 38 39 40 41 42 43 44 45 46 47 48 49 50
000
AXUS43 KGID 051002
MISGRI

GID CWA HOURLY WEATHER ROUNDUP
NATIONAL WEATHER SERVICE HASTINGS NE
400 AM CST THU MAR 05 2015

NOTE: "FAIR" INDICATES FEW OR NO CLOUDS BELOW 12,000 FEET WITH NO
SIGNIFICANT WEATHER AND/OR OBSTRUCTIONS TO VISIBILITY.

...SOUTH CENTRAL NEBRASKA...

CITY           SKY/WX    TMP DP  RH WIND       PRES   REMARKS
GRAND ISLAND   CLEAR      4  -2  76 CALM      30.43F
HASTINGS       CLEAR      5  -3  69 CALM      30.40F
KEARNEY        CLEAR      3   0  85 CALM      30.39F
ORD            CLEAR     -2  -8  76 SW5       30.38F WCI -12
YORK           CLEAR      1  -2  85 W3        30.44F
AURORA         CLEAR      0  -6  76 CALM      30.43F
LEXINGTON      CLEAR      4  -1  81 CALM      30.36F
HOLDREGE       CLEAR      4  -3  74 E6        30.37F WCI  -7
HEBRON         CLEAR      6   0  75 CALM      30.47S

...NEBRASKA PANHANDLE...

CITY           SKY/WX    TMP DP  RH WIND       PRES   REMARKS
CHADRON        PTCLDY    -6 -11  79 CALM      30.22F
ALLIANCE       PTCLDY     1  -4  79 CALM      30.18F
SCOTTSBLUFF    PTCLDY     5   0  79 N6        30.20F WCI  -6
SIDNEY         CLEAR      8   3  80 W9        30.19F WCI  -5

...WESTERN AND NORTH CENTRAL NEBRASKA...

CITY           SKY/WX    TMP DP  RH WIND       PRES   REMARKS
VALENTINE      PTCLDY    -2  -7  79 SW7       30.29F WCI -15
AINSWORTH      CLEAR      4  -2  78 SW8       30.30F WCI -10
ONEILL         CLEAR     -1  -5  83 SW3       30.37F
BROKEN BOW     CLEAR     -2  -7  79 CALM      30.34F
IMPERIAL         N/A      6   1  80 CALM      30.27F
NORTH PLATTE   CLEAR      2  -4  76 E5        30.31F WCI  -8
MCCOOK         CLEAR     11   2  67 CALM      30.34F

...EASTERN NEBRASKA...

CITY           SKY/WX    TMP DP  RH WIND       PRES   REMARKS
NORFOLK        CLEAR     -3  -9  75 CALM      30.43S
SO SIOUX CITY  CLEAR     -1  -7  75 CALM      30.49S
TEKAMAH        CLEAR      0  -6  76 W3        30.50S
COLUMBUS       CLEAR      1 -13  51 CALM      30.46S
ALBION         PTCLDY     0  -6  76 CALM      30.41F
OMAHA EPPLEY   CLEAR      6  -3  66 CALM      30.50F
OFFUTT AFB     CLEAR      2  -4  76 CALM      30.49S
MILLARD        CLEAR      7  -2  68 CALM      30.50S
LINCOLN        CLEAR      0  -7  72 N3        30.50S
NEBRASKA CITY  CLEAR      6  -6  57 CALM      30.48S
BEATRICE       CLEAR      4  -2  76 NE5       30.47S WCI  -5
FALLS CITY     CLEAR      6  -3  66 NW5       30.50S WCI  -3

...NORTHERN KANSAS...

CITY           SKY/WX    TMP DP  RH WIND       PRES   REMARKS
GOODLAND       CLEAR     14   9  80 W10       30.27F WCI   1
HILL CITY      CLEAR     10   2  69 E7        30.37F WCI  -1
NORTON         SUNNY      9   0  66 E5        30.35  WCI   0
PHILLIPSBURG   CLEAR     10   3  72 E3        30.41F
SMITH CENTER   CLEAR      9   0  66 E9        30.42F WCI  -5
BELOIT         PTCLDY    10   3  72 NE3       30.46S
HAYS           PTCLDY    12  -2  52 NE5       30.38F WCI   4
RUSSELL        CLEAR     11   3  70 E9        30.39F WCI  -2
CONCORDIA      CLEAR     10   1  67 E3        30.46S
SALINA         CLEAR     13   4  67 N3        30.48R
TOPEKA         CLEAR     13   2  61 N5        30.51R WCI   5



USA.gov is the U.S. government's official web portal to all federal, state and local government web resources and services.